Pian Rosa, Italy

12:28 AM CET on January 20, 2018 (GMT +0100)
Pian Rosa

Weather History for LIMH - November, 2012

Change the Weather History Date:

Sunday, November 4, 2012

  Actual Average Record
Temperature  
Mean Temperature 24 °F -  
Max Temperature 27 °F 22 °F 30 °F (1996)
Min Temperature 21 °F 12 °F 12 °F (2006)
Degree Days  
Heating Degree Days 41    
Moisture  
Dew Point 20 °F    
Average Humidity 81    
Maximum Humidity 100    
Minimum Humidity 32    
Precipitation  
Precipitation 0.02 in - - ()
Sea Level Pressure  
Sea Level Pressure 29.79 in    
Wind  
Wind Speed 29 mph ()    
Max Wind Speed 46 mph    
Max Gust Speed -    
Visibility 1.1 miles    
Events Fog , Snow    
Averages and records for this station are not official NWS values.
T = Trace of Precipitation, MM = Missing Value Source: Averaged Metar Reports

Daily Weather History Graph

Daily Weather History Graph

Search for Another Location

Airport or City:

Trip Planner

Search our weather history database for the weather conditions in past years. The results will help you decide how hot, cold, wet, or windy it might be!

Date:

Astronomy

Nov. 04, 2012 Rise Set
Actual Time 7:14 AM CET 5:10 PM CET
Civil Twilight 6:42 AM CET 5:42 PM CET
Nautical Twilight 6:07 AM CET 6:17 PM CET
Astronomical Twilight 5:32 AM CET 6:52 PM CET
Moon 9:29 PM CET (11/4) 11:51 AM CET (11/4)
Length of Visible Light 10h 59m
Length of Day
9h 56m
Waning Gibbous, 74% of the Moon is Illuminated
Nov 4
Waning Gibbous
Nov 7
Last Quarter
Nov 13
New
Nov 20
First Quarter
Nov 28
Full

Hourly Weather History & Observations

Time (CET) Temp. Windchill Dew Point Humidity Pressure Visibility Wind Dir Wind Speed Gust Speed Precip Events Conditions
12:55 AM 23.0 °F 4.9 °F 5.0 °F 46% 29.89 in 0.5 mi South 32.2 mph - N/A Fog Light Freezing Fog
1:00 AM 23 °F - 6 °F 32%  in 0 mi South 32.2 mph - - Fog Heavy Fog
1:55 AM 23.0 °F 4.6 °F 15.8 °F 74% 29.89 in 0.5 mi South 33.4 mph - N/A Fog Light Freezing Fog
2:55 AM 24.8 °F 7.9 °F 19.4 °F 80% 29.89 in 0.1 mi SSW 29.9 mph - N/A Fog Light Freezing Fog
4:00 AM 24 °F - 19 °F 75%  in 0 mi SSW 27.6 mph - - Fog Heavy Fog
4:55 AM 23.0 °F 5.7 °F 21.2 °F 93% 29.86 in 0.5 mi SSW 28.8 mph - N/A Fog Light Freezing Fog
5:55 AM 23.0 °F 6.0 °F 21.2 °F 93% 29.86 in 0.2 mi South 27.6 mph - N/A Fog Light Freezing Fog
6:55 AM 23.0 °F 4.4 °F 21.2 °F 93% 29.86 in 0.5 mi South 34.5 mph - N/A Fog Light Freezing Fog
7:00 AM 23 °F - 22 °F 92%  in 0 mi South 34.5 mph - - Fog Heavy Fog
7:55 AM 24.8 °F 7.6 °F 21.2 °F 86% 29.86 in 0.5 mi South 31.1 mph - N/A Fog Light Freezing Fog
8:55 AM 24.8 °F 7.6 °F 21.2 °F 86% 29.86 in 0.5 mi SSW 31.1 mph - N/A Fog Light Freezing Fog
9:55 AM 24.8 °F 6.6 °F 19.4 °F 80% 29.89 in 1.9 mi South 35.7 mph - N/A   Mostly Cloudy
10:55 AM 24.8 °F 7.9 °F 21.2 °F 86% 29.89 in 6.2 mi SSW 29.9 mph - N/A   Scattered Clouds
11:55 AM 24.8 °F 7.9 °F 19.4 °F 80% 29.86 in 6.2 mi SSW 29.9 mph - N/A   Mostly Cloudy
12:55 PM 24.8 °F 7.1 °F 17.6 °F 74% 29.86 in 6.2 mi South 33.4 mph - N/A   Scattered Clouds
1:00 PM 25 °F - 17 °F 61%  in 6 mi South 33.4 mph - -   Partly Cloudy
2:55 PM 26.6 °F 7.3 °F 19.4 °F 74% 29.80 in 1.2 mi South 46.0 mph - N/A   Mostly Cloudy
3:55 PM 26.6 °F 9.3 °F 19.4 °F 74% 29.77 in 0.5 mi South 34.5 mph - N/A Fog Light Freezing Fog
4:00 PM 26 °F - 19 °F 67%  in 0 mi South 34.5 mph - - Fog Heavy Fog
4:55 PM 24.8 °F 7.6 °F 19.4 °F 80% 29.74 in 0.1 mi South 31.1 mph - N/A Fog , Snow Light Snow
5:55 PM 26.6 °F 8.1 °F 21.2 °F 80% 29.71 in 0.1 mi South 41.4 mph - N/A Fog , Snow Light Snow
6:55 PM 24.8 °F 6.0 °F 23.0 °F 93% 29.68 in 0.1 mi South 39.1 mph - N/A Fog , Snow Light Snow
7:00 PM 25 °F - 23 °F 89%  in 0 mi South 39.1 mph - - Snow Light Snow
7:55 PM 24.8 °F 6.4 °F 24.8 °F 100% 29.68 in 0.1 mi South 36.8 mph - N/A Fog , Snow Light Snow
8:55 PM 26.6 °F 9.1 °F 24.8 °F 93% 29.65 in 0.1 mi South 35.7 mph - N/A Fog , Snow Light Snow
9:55 PM 24.8 °F 7.9 °F 24.8 °F 100% 29.62 in 0.1 mi South 29.9 mph - N/A Fog , Snow Light Snow
10:00 PM 26 °F - 24 °F 89%  in 0 mi South 29.9 mph - - Snow Light Snow
10:55 PM 24.8 °F 11.5 °F 23.0 °F 93% 29.62 in 0.1 mi South 17.3 mph - N/A Fog , Snow Light Snow
11:55 PM 26.6 °F 15.2 °F 24.8 °F 93% 29.65 in 0.2 mi SSW 13.8 mph - N/A Fog , Snow Light Snow